Location: Appletree Creek
(38.7363°N, 122.6833°W)
Time: 17:20:29
(UTC+00:00)

CZ-4B R/B - Pass Details

Date: 18 September 2020
Orbit: 391 x 461 km, 97.6° (Epoch: 19 October)

Event Time Altitude Azimuth Distance (km) Brightness Sun altitude
Rises 13:08:12 0° 183° (S) 2,292 4.9 -10.0°
Reaches altitude 10° 13:10:14 10° 192° (SSW) 1,448 3.8 -9.6°
Maximum altitude 13:13:07 37° 261° (W) 654 1.7 -9.0°
Drops below altitude 10° 13:16:06 10° 331° (NNW) 1,491 3.8 -8.5°
Sets 13:18:13 0° 340° (NNW) 2,372 4.9 -8.1°
